Hourly Data Report for May 16, 2021

TOBERMORY RCS
ONTARIO
Current Station Operator: ECCC - MSC

45°14'00.000" N
81°38'00.000" W
213.50 m
6128330
71767
TTR

Download Data

Hourly Data (May 2021)
Hourly Data Report for May 16, 2021
TIME
LST
Temp Definition
°C
Dew Point Definition
°C
Rel Hum Definition
%
Precip. Amount Definition
mm

Wind Dir Definition
10's deg

Wind Spd Definition
km/h
Visibility Definition
km
Stn Press Definition
kPa
Hmdx Definition


Wind Chill Definition


Weather Definition


00:00 7.1 1.1 66 0.0 0 1   99.68     LegendNANA
01:00 6.4 1.3 70 0.0 10 2   99.67     LegendNANA
02:00 6.2 2.7 78 0.0   0   99.66     LegendNANA
03:00 7.9 1.9 66 0.0 29 7   99.71     LegendNANA
04:00 6.2 1.2 70 0.0 36 2   99.71     LegendNANA
05:00 5.7 2.3 78 0.0 1 3   99.70     LegendNANA
06:00 7.7 2.9 72 0.0 4 4   99.73     LegendNANA
07:00 11.7 2.1 52 0.0 26 2   99.80     LegendNANA
08:00 12.9 2.2 48 0.0 1 4   99.80     LegendNANA
09:00 14.5 0.6 39 0.0 5 7   99.85     LegendNANA
10:00 13.2 2.7 49 0.0 20 11   99.89     LegendNANA
11:00 14.6 2.1 43 0.0 22 13   99.89     LegendNANA
12:00 16.0 2.6 41 0.0 23 12   99.89     LegendNANA
13:00 16.2 3.0 41 0.0 24 12   99.88     LegendNANA
14:00 16.9 4.9 45 0.0 28 14   99.88     LegendNANA
15:00 17.5 4.6 43 0.0 28 13   99.83     LegendNANA
16:00 17.0 3.6 41 0.0 29 12   99.79     LegendNANA
17:00 17.2 4.6 43 0.0 29 10   99.78     LegendNANA
18:00 16.0 5.2 49 0.0 22 7   99.74     LegendNANA
19:00 13.1 5.9 62 0.0 19 5   99.73     LegendNANA
20:00 9.2 6.1 81 0.0 20 1   99.74     LegendNANA
21:00 8.2 5.8 85 0.0 16 5   99.78     LegendNANA
22:00 7.8 5.7 87 0.0 15 5   99.76     LegendNANA
23:00 8.9 5.4 79 0.0 15 7   99.76     LegendNANA

Notes on Data Quality.

Legend

  • E = Estimated
  • M = Missing
  • NA = Not Available*
  • [empty] = Indicates an unobserved value
Date modified: